EHI
0 0 0 0 0 0 0 0 0 0 0 0 0 0 0 0 0 0 0 0 0 0 0 0 0 0 0 0 0 0 0 0 0 0 0 0 0 0 0 0 0 0 0 0
0 0 0 0 0 0 0 0 0 0 0 0 0 0 0 0 0 0 0 0 0 0 0 0 0 0 0 0 0 0 0 0 0 0 0 0 0 0 0 0 0 0 0 0
0 0 0 0 0 0 0 0 0 0 0 0 0 0 0 0 0 0 0 0 0 0 0 0 0 0 0 0 0 0 0 0 0 0 0 0 0 0 0 0 0 0 0 0
0 0 0 0 0 0 0 0 0 0 0 0 0 0 0 0 0 0 0 0 0 0 0 0 0 0 0 0 0 0 0 0 0 0 0 0 0 0 0 0 0 0 0 0
0 0 0 0 0 0 0 0 0 0 0 0 0 0 0 0 0 0 0 0 0 0 0 0 0 0 0 0 0 0 0 0 0 0 0 0 0 0 0 0 0 0 0 0
0 0 0 0 0 0 0 0 0 0 0 0 0 0 0 0 0 0 0 0 0 0 0 0 0 0 0 0 0 0 0 0 0 0 0 0 0 0 0 0 0 0 0 0
0 0 0 0 0 0 0 0 0 0 0 0 0 0 0 0 0 0 0 0 0 0 0 0 0 0 0 0 0 0 0 0 0 0 0 0 0 0 0 0 0 0 0 0
0 0 0 0 0 0 0 0 0 0 0 0 0 0 0 0 0 0 0 0 0 0 0 0 0 0 0 0 0 0 0 0 0 0 0 0 0 0 0 0 0 0 0 0
0 0 0 0 0 0 0 0 0 0 0 0 0 0 0 0 0 0 0 0 0 0 0 0 0 0 0 0 0 0 0 0 0 0 0 0 0 0 0 0 0 0 0 0
0 0 0 0 0 0 0 0 0 0 0 0 0 0 0 0 0 0 0 0 0 0 0 0 0 0 0 0 0 0 0 0 0 0 0 0 0 0 0 0 0 0 0 0
0 0 0 0 0 0 0 0 0 0 0 0 0 0 0 0 0 0 0 0 0 0 0 0 0 0 0 0 0 0 0 0 0 0 0 0 0 0 0 0 0 0 0 0
0 0 0 0 0 0 0 0 0 0 0 0 0 0 0 0 0 0 0 0 0 0 0 0 0 0 0 0 0 0 0 0 0 0 0 0 0 0 0 0 0 0 0 0
0 0 0 0 0 0 0 0 0 0 0 0 0 0 0 0 0 0 0 0 0 0 0 0 0 0 0 0 0 0 0 0 0 0 0 0 0 0 0 0 0 0 0 0
0 0 0 0 0 0 0 0 0 0 0 0 0 0 0 0 0 0 0 0 0 0 0 0 0 0 0 0 0 0 0 0 0 0 0 0 0 0 0 0 0 0 0 0
0 0 0 0 0 0 0 0 0 0 0 0 0 0 0 0 0 0 0 0 0 0 0 0 0 0 0 0 0 0 0 0 0 0 0 0 0 0 0 0 0 0 0 0
0 0 0 0 0 0 0 0 0 0 0 0 0 0 0 0 0 0 0 0 0 0 0 0 0 0 0 0 0 0 0 0 0 0 0 0 0 0 0 0 0 0 0 0
0 0 0 0 0 0 0 0 0 0 0 0 0 0 0 0 0 0 0 0 0 0 0 0 0 0 0 0 0 0 0 0 0 0 0 0 0 0 0 0 0 0 0 0
0 0 0 0 0 0 0 0 0 0 0 0 0 0 0 0 0 0 0 0 0 0 0 0 0 0 0 0 0 0 0 0 0 0 0 0 0 0 0 0 0 0 0 0
0 0 0 0 0 0 0 0 0 0 0 0 0 0 0 0 0 0 0 0 0 0 0 0 0 0 0 0 0 0 0 0 0 0 0 0 0 0 0 0 0 0 0 0
0 0 0 0 0 0 0 0 0 0 0 0 0 0 0 0 0 0 0 0 0 0 0 0 0 0 0 0 0 0 0 0 0 0 0 0 0 0 0 0 0 0 0 0
0 0 0 0 0 0 0 0 0 0 0 0 0 0 0 0 0 0 0 0 0 0 0 0 0 0 0 0 0 0 0 0 0 0 0 0 0 0 0 0 0 0 0 0
0 0 0 0 0 0 0 0 0 0 0 0 0 0 0 0 0 0 0 0 0 0 0 0 0 0 0 0 0 0 0 0 0 0 0 0 0 0 0 0 0 0 0 0
0 0 0 0 0 0 0 0 0 0 0 0 0 0 0 0 0 0 0 0 0 0 0 0 0 0 0 0 0 0 0 0 0 0 0 0 0 0 0 0 0 0 0 0
0 0 0 0 0 0 0 0 0 0 0 0 0 0 0 0 0 0 0 0 0 0 0 0 0 0 0 0 0 0 0 0 0 0 0 0 0 0 0 0 0 0 0 0
0 0 0 0 0 0 0 0 0 0 0 0 0 0 0 0 0 0 0 0 0 0 0 0 0 0 0 0 0 0 0 0 0 0 0 0 0 0 0 0 0 0 0 0
0 0 0 0 0 0 0 0 0 0 0 0 0 0 0 0 0 0 0 0 0 0 0 0 0 0 0 0 0 0 0 0 0 0 0 0 0 0 0 0 0 0 0 0
Wind_Speed
5 5 5 7 8 8 6 4 4 5 6 7 7 7 7 8 7 6 5 5 6 6 5 5 6 6 5 4 4 3 3 2 2 2 2 2 3 3 3 3 4 5 5 4
3 4 7 7 7 6 4 3 2 2 4 6 5 5 6 9 9 9 8 7 7 6 5 5 5 4 5 4 4 4 3 2 1 1 0 1 1 2 2 3 4 5 5 5
6 4 6 7 6 5 3 4 4 4 1 1 1 4 1 3 4 5 6 7 8 10 9 7 6 5 5 5 4 4 3 2 1 1 1 2 2 3 3 4 4 5 5 5
2 3 4 5 5 6 3 5 5 3 2 3 2 1 4 3 4 4 5 6 7 8 8 7 7 6 6 5 4 5 4 2 1 1 1 1 1 2 3 3 3 5 5 5
3 4 5 4 5 7 7 6 3 1 2 2 1 3 5 2 4 5 5 6 7 8 9 9 8 7 6 5 5 4 3 2 1 0 1 0 1 2 2 3 4 4 4 5
2 2 4 5 2 4 4 4 6 6 5 2 4 5 5 5 7 6 5 6 7 8 7 7 6 6 5 4 4 4 3 2 2 1 0 1 1 2 3 3 4 4 3 4
2 2 1 4 4 2 6 7 5 5 4 6 3 4 7 5 6 7 8 7 7 8 7 7 7 6 6 5 5 4 4 3 3 2 1 2 2 2 2 3 3 3 3 3
3 2 3 3 5 5 4 8 7 4 4 5 2 3 5 3 4 5 7 7 7 7 7 8 8 7 6 6 5 5 4 3 3 2 2 2 2 1 2 3 3 3 3 3
5 3 2 1 2 6 5 3 6 6 2 2 3 2 3 0 2 3 5 6 7 7 8 8 7 7 6 6 6 6 5 4 3 3 2 2 2 2 2 3 3 3 3 3
6 3 0 1 4 3 5 7 5 4 2 1 2 3 5 6 6 5 5 6 7 6 6 7 6 6 6 6 6 5 5 5 4 3 2 2 2 2 2 2 3 3 4 4
4 5 0 1 2 4 2 2 5 4 5 5 2 7 7 10 8 7 7 7 8 7 7 7 6 6 5 5 4 4 4 4 3 3 3 2 2 2 1 1 2 3 3 4
3 6 2 4 4 5 5 5 7 4 3 4 3 8 5 7 7 7 7 7 7 7 7 7 6 5 5 5 4 5 5 5 5 4 3 2 2 1 1 2 3 3 3 3
5 7 4 5 6 2 2 4 6 6 4 4 3 7 3 3 4 5 6 6 6 6 6 5 5 5 6 5 5 5 5 5 5 4 3 3 2 2 3 3 3 3 3 3
6 5 7 8 7 6 4 5 6 6 4 4 6 6 2 5 6 5 5 6 6 6 6 6 5 6 6 6 5 5 5 5 5 4 4 4 4 4 4 3 3 3 3 3
6 4 4 6 6 6 7 7 8 7 8 7 6 6 7 9 9 7 6 6 5 5 5 6 6 5 5 5 5 5 5 5 5 5 5 6 5 4 3 3 3 3 3 3
4 3 1 2 3 4 5 8 9 8 7 7 5 6 6 5 4 5 6 7 6 5 5 6 5 5 4 5 5 5 5 5 5 5 6 5 4 4 4 4 3 3 3 4
3 5 3 3 4 1 6 10 11 8 7 9 10 9 5 5 7 8 8 7 6 6 5 5 5 5 5 4 4 4 4 3 3 3 4 4 4 4 5 4 3 4 4 3
7 5 4 2 1 5 11 6 9 11 9 9 7 8 11 10 8 6 7 8 7 6 5 4 4 3 3 2 2 3 2 2 2 2 2 3 3 4 4 4 4 5 4 4
6 8 4 3 3 7 10 6 8 9 8 9 10 9 8 6 5 0 4 6 7 6 5 4 4 3 2 2 2 3 3 1 1 1 2 3 3 4 4 4 5 5 4 4
5 6 6 4 3 6 10 8 4 6 5 6 11 11 10 9 5 6 5 6 6 5 5 4 4 4 4 2 3 5 3 2 1 3 3 3 3 3 4 5 5 4 4 5
3 2 4 5 4 9 10 4 5 6 10 5 10 11 13 11 8 7 7 6 5 5 5 5 6 5 3 2 4 5 3 2 3 3 2 2 3 3 4 4 3 3 4 4
8 6 6 6 4 11 7 4 7 9 4 4 8 9 10 7 7 8 9 8 7 6 6 6 7 5 3 3 5 5 3 3 3 2 2 3 4 4 3 3 4 3 3 3
8 10 9 11 11 10 6 9 8 6 5 6 7 7 10 10 9 8 8 8 7 6 6 6 7 6 4 4 4 4 3 3 3 3 4 4 5 4 4 3 4 3 2 2
5 2 3 4 8 7 6 5 4 7 7 7 8 10 11 11 10 10 9 8 7 6 6 6 7 7 4 4 5 4 4 4 4 4 4 4 5 5 5 4 3 2 2 2
6 1 2 5 7 4 5 6 6 5 5 7 7 8 12 13 11 10 9 9 7 6 5 6 7 7 5 4 5 5 4 4 5 4 5 5 5 5 5 4 3 3 2 2
6 6 5 8 8 7 9 10 8 8 8 10 10 8 8 11 12 10 10 8 8 7 6 7 7 7 5 5 5 5 4 4 5 4 4 4 4 4 4 4 4 5 5 8
Wind_Direction
165 131 184 195 178 175 176 184 227 231 194 182 220 234 212 200 189 189 186 178 178 176 169 156 148 137 123 109 103 100 88 62 51 29 8 353 340 334 339 340 346 343 339 336
96 201 201 167 165 163 161 169 225 259 199 185 223 247 214 191 192 188 179 169 158 148 146 148 142 135 129 121 112 104 101 95 73 52 294 277 299 306 311 326 343 346 345 339
164 211 174 162 164 148 167 168 187 212 269 298 180 341 246 197 185 188 176 162 154 158 159 160 152 147 136 129 133 127 129 122 98 51 21 5 3 348 346 340 336 332 341 346
191 228 160 153 174 157 192 204 189 190 124 283 139 244 273 203 180 185 170 149 155 159 159 161 156 154 155 159 150 139 143 141 132 88 58 33 2 325 298 300 310 322 337 343
206 189 164 174 189 160 194 209 187 148 130 346 0 149 280 177 189 205 192 175 170 167 166 167 166 166 168 168 158 152 153 164 192 177 138 80 314 284 295 311 327 331 328 333
203 211 170 178 168 160 155 63 42 47 65 326 236 154 239 216 200 194 197 189 180 174 168 166 165 159 167 173 164 159 164 200 231 249 253 184 253 295 320 323 325 324 317 317
11 343 191 138 106 52 83 80 35 3 7 262 243 154 233 233 193 176 179 187 184 175 168 166 166 170 178 182 183 179 181 214 240 251 253 228 235 257 278 290 299 310 313 310
141 259 229 168 158 164 153 131 149 190 224 281 335 202 247 247 181 163 166 174 177 180 179 178 182 183 186 189 189 189 196 215 229 233 246 244 247 249 267 279 282 293 291 288
164 234 282 128 135 135 131 147 165 141 200 262 296 337 328 343 167 171 177 176 183 188 187 186 187 186 188 190 196 198 199 209 219 226 231 249 267 261 275 291 296 299 301 305
148 148 251 43 58 51 140 143 98 116 153 276 299 233 224 213 214 209 200 200 202 195 188 186 186 188 192 197 202 201 197 202 213 216 221 223 253 263 275 296 314 314 316 321
132 130 334 44 186 198 149 134 113 123 156 156 222 259 224 197 198 199 207 203 196 191 188 190 193 196 194 194 195 198 203 203 211 210 212 219 253 262 279 296 298 303 310 319
134 116 163 254 275 199 173 176 144 150 212 168 180 262 263 189 191 188 198 199 194 189 186 188 190 191 194 201 203 201 204 207 213 209 205 216 231 242 272 281 285 298 307 314
123 110 84 352 334 329 192 177 152 135 127 154 176 261 297 182 187 195 190 189 187 186 182 182 185 192 202 208 210 208 208 213 212 201 202 216 226 238 253 265 279 293 301 312
114 117 155 186 215 204 210 208 166 134 158 207 219 235 222 195 197 205 198 186 182 186 184 184 197 212 218 218 215 214 218 213 205 199 203 217 228 230 239 254 271 282 290 299
111 144 199 223 228 192 205 209 191 178 182 186 222 208 217 204 197 198 193 182 174 181 187 192 202 216 225 230 229 224 222 216 206 200 210 224 230 230 239 255 267 278 289 290
107 144 166 289 253 216 226 219 206 204 193 201 213 237 230 197 175 177 179 170 172 183 190 196 201 205 214 220 223 222 223 219 204 206 221 230 230 232 240 250 259 274 285 289
142 142 132 265 293 346 264 223 204 206 203 186 207 220 178 174 186 187 185 178 177 181 182 184 190 197 208 214 206 201 212 198 189 215 233 236 233 238 246 251 259 267 271 276
146 137 139 200 67 226 243 234 196 202 216 197 194 188 178 186 191 189 177 170 176 177 172 175 180 187 203 206 190 179 160 154 181 227 255 252 245 250 256 256 259 262 261 264
148 140 135 143 218 272 285 264 185 182 233 205 184 182 179 148 101 350 195 166 169 171 169 171 168 159 149 152 153 126 114 122 132 264 266 259 248 253 262 263 261 259 258 265
94 108 124 136 185 246 254 265 188 122 251 221 176 173 163 137 148 227 200 157 149 146 145 142 131 110 104 106 116 103 89 61 323 273 263 258 251 251 258 261 263 262 255 260
141 114 145 167 212 262 256 261 114 145 235 217 176 169 166 177 190 180 156 144 137 132 131 124 109 95 91 99 100 87 64 11 305 299 301 299 284 268 265 272 271 274 278 281
178 174 186 158 193 253 248 158 179 210 221 171 171 169 165 166 143 141 146 143 137 128 123 121 110 98 77 78 90 80 38 325 333 0 359 334 317 310 314 289 291 290 292 297
199 192 185 185 209 231 215 203 212 178 172 174 164 164 147 144 152 154 153 151 146 140 134 125 119 105 76 62 78 74 4 350 13 21 0 340 338 336 333 321 313 316 316 308
267 184 160 245 262 256 240 224 199 183 182 176 162 156 153 156 158 156 155 153 148 143 140 130 118 107 85 61 59 51 16 23 45 30 5 353 351 346 346 347 344 343 341 335
246 209 209 254 272 298 280 239 211 187 163 152 153 163 163 155 157 159 157 155 149 140 132 125 120 114 103 80 58 38 30 44 49 34 15 4 0 352 349 352 353 353 354 15
219 200 200 235 235 208 236 234 207 183 182 172 161 161 167 163 160 155 154 152 145 138 129 122 118 116 107 86 59 33 28 51 56 37 16 5 360 355 356 355 354 2 10 15